| time (UTC) | temp F | wind direction | speed MPH | gust MPH | rain 1hr in | rain 24hr in | rain mn in | humidity % | barometer mb |
| 20260510053524 | 52 | 348 | 11.0 | 12.0 | 0.00 | 0.00 | 0.00 | 84 | 1015.9 |
| 20260510053003 | 52 | 350 | 10.0 | 13.0 | 0.00 | 0.00 | 0.00 | 84 | 1016.0 |
| 20260510052503 | 52 | 349 | 11.0 | 13.0 | 0.00 | 0.00 | 0.00 | 85 | 1016.0 |
| 20260510052003 | 52 | 349 | 10.0 | 12.0 | 0.00 | 0.00 | 0.00 | 85 | 1015.9 |
| 20260510051503 | 52 | 349 | 11.0 | 13.0 | 0.00 | 0.00 | 0.00 | 85 | 1015.9 |
| 20260510051003 | 52 | 351 | 10.0 | 13.0 | 0.00 | 0.00 | 0.00 | 86 | 1015.8 |
| 20260510050503 | 52 | 351 | 10.0 | 14.0 | 0.00 | 0.00 | 0.00 | 86 | 1015.7 |
| 20260510050003 | 51 | 351 | 10.0 | 13.0 | 0.00 | 0.00 | 0.00 | 86 | 1015.7 |
| 20260510045524 | 51 | 351 | 10.0 | 14.0 | 0.00 | 0.00 | 0.00 | 86 | 1015.6 |
| 20260510045003 | 51 | 354 | 8.0 | 11.0 | 0.00 | 0.00 | 0.00 | 87 | 1015.8 |
| 20260510044503 | 51 | 358 | 8.0 | 11.0 | 0.00 | 0.00 | 0.00 | 87 | 1015.9 |
| 20260510044003 | 51 | 354 | 9.0 | 11.0 | 0.00 | 0.00 | 0.00 | 87 | 1015.8 |
| 20260510043503 | 51 | 350 | 10.0 | 10.0 | 0.00 | 0.00 | 0.00 | 87 | 1015.7 |
| 20260510043003 | 51 | 352 | 10.0 | 13.0 | 0.00 | 0.00 | 0.00 | 87 | 1015.8 |
| 20260510042503 | 51 | 349 | 10.0 | 12.0 | 0.00 | 0.00 | 0.00 | 87 | 1015.6 |
| 20260510042003 | 51 | 350 | 10.0 | 13.0 | 0.00 | 0.00 | 0.00 | 87 | 1015.7 |
| 20260510041503 | 52 | 348 | 10.0 | 13.0 | 0.00 | 0.00 | 0.00 | 87 | 1015.7 |
| 20260510041003 | 52 | 350 | 10.0 | 13.0 | 0.00 | 0.00 | 0.00 | 87 | 1015.8 |
| 20260510040503 | 52 | 350 | 9.0 | 13.0 | 0.00 | 0.00 | 0.00 | 87 | 1015.8 |
| 20260510040003 | 52 | 351 | 9.0 | 10.0 | 0.00 | 0.00 | 0.00 | 86 | 1015.8 |
| 20260510035503 | 52 | 349 | 9.0 | 11.0 | 0.00 | 0.00 | 0.00 | 86 | 1015.7 |
| 20260510035003 | 52 | 351 | 9.0 | 10.0 | 0.00 | 0.00 | 0.00 | 86 | 1015.7 |
| 20260510034503 | 52 | 350 | 9.0 | 10.0 | 0.00 | 0.00 | 0.00 | 85 | 1015.6 |
| 20260510034003 | 52 | 349 | 10.0 | 13.0 | 0.00 | 0.00 | 0.00 | 85 | 1015.7 |
| 20260510033503 | 52 | 349 | 10.0 | 13.0 | 0.00 | 0.00 | 0.00 | 85 | 1015.6 |
| 20260510033024 | 52 | 353 | 9.0 | 12.0 | 0.00 | 0.00 | 0.00 | 85 | 1015.5 |
| 20260510032503 | 52 | 353 | 9.0 | 11.0 | 0.00 | 0.00 | 0.00 | 85 | 1015.7 |
| 20260510032003 | 52 | 351 | 8.0 | 12.0 | 0.00 | 0.00 | 0.00 | 85 | 1015.6 |
| 20260510031503 | 52 | 352 | 9.0 | 10.0 | 0.00 | 0.00 | 0.00 | 85 | 1015.6 |
| 20260510031003 | 52 | 354 | 8.0 | 11.0 | 0.00 | 0.00 | 0.00 | 84 | 1015.7 |
| 20260510030503 | 52 | 351 | 9.0 | 11.0 | 0.00 | 0.00 | 0.00 | 84 | 1015.7 |
| 20260510030024 | 52 | 352 | 9.0 | 12.0 | 0.00 | 0.00 | 0.00 | 84 | 1015.7 |
| 20260510025503 | 52 | 350 | 10.0 | 14.0 | 0.00 | 0.00 | 0.00 | 84 | 1015.7 |
| 20260510025024 | 52 | 349 | 9.0 | 13.0 | 0.00 | 0.00 | 0.00 | 83 | 1015.7 |
| 20260510024524 | 52 | 349 | 9.0 | 10.0 | 0.00 | 0.00 | 0.00 | 83 | 1015.7 |
| 20260510024003 | 53 | 348 | 8.0 | 10.0 | 0.00 | 0.00 | 0.00 | 83 | 1015.8 |
| 20260510023503 | 52 | 349 | 8.0 | 12.0 | 0.00 | 0.00 | 0.00 | 83 | 1015.7 |
| 20260510023003 | 53 | 351 | 8.0 | 8.0 | 0.00 | 0.00 | 0.00 | 82 | 1015.9 |
| 20260510022503 | 53 | 350 | 8.0 | 9.0 | 0.00 | 0.00 | 0.00 | 82 | 1016.0 |
| 20260510022003 | 53 | 352 | 8.0 | 10.0 | 0.00 | 0.00 | 0.00 | 82 | 1015.9 |
| 20260510021503 | 53 | 349 | 8.0 | 10.0 | 0.00 | 0.00 | 0.00 | 82 | 1015.9 |
| 20260510021003 | 53 | 350 | 7.0 | 10.0 | 0.00 | 0.00 | 0.00 | 81 | 1016.0 |
| 20260510020503 | 53 | 351 | 8.0 | 10.0 | 0.00 | 0.00 | 0.00 | 81 | 1016.0 |
| 20260510020003 | 53 | 350 | 8.0 | 10.0 | 0.00 | 0.00 | 0.00 | 81 | 1015.9 |
| 20260510015503 | 53 | 348 | 8.0 | 10.0 | 0.00 | 0.00 | 0.00 | 81 | 1016.0 |
| 20260510015003 | 53 | 350 | 8.0 | 11.0 | 0.00 | 0.00 | 0.00 | 81 | 1016.0 |
| 20260510014503 | 53 | 351 | 8.0 | 11.0 | 0.00 | 0.00 | 0.00 | 81 | 1016.0 |
| 20260510014003 | 53 | 350 | 8.0 | 10.0 | 0.00 | 0.00 | 0.00 | 81 | 1016.0 |
| 20260510013503 | 53 | 352 | 8.0 | 9.0 | 0.00 | 0.00 | 0.00 | 81 | 1016.1 |
| 20260510013003 | 53 | 351 | 9.0 | 10.0 | 0.00 | 0.00 | 0.00 | 81 | 1016.1 |
| 20260510012503 | 53 | 351 | 8.0 | 10.0 | 0.00 | 0.00 | 0.00 | 81 | 1016.1 |
| 20260510012003 | 53 | 350 | 8.0 | 8.0 | 0.00 | 0.00 | 0.00 | 80 | 1016.2 |
| 20260510011503 | 53 | 347 | 8.0 | 10.0 | 0.00 | 0.00 | 0.00 | 80 | 1016.1 |
| 20260510011003 | 53 | 350 | 8.0 | 11.0 | 0.00 | 0.00 | 0.00 | 80 | 1016.2 |
| 20260510010503 | 53 | 353 | 7.0 | 10.0 | 0.00 | 0.00 | 0.00 | 80 | 1016.3 |
| 20260510010004 | 53 | 351 | 7.0 | 9.0 | 0.00 | 0.00 | 0.00 | 80 | 1016.4 |
| 20260510005503 | 53 | 357 | 6.0 | 9.0 | 0.00 | 0.00 | 0.00 | 79 | 1016.4 |
| 20260510005003 | 53 | 5 | 6.0 | 7.0 | 0.00 | 0.00 | 0.00 | 79 | 1016.5 |
| 20260510004503 | 53 | 352 | 7.0 | 9.0 | 0.00 | 0.00 | 0.00 | 79 | 1016.5 |
| 20260510004003 | 53 | 350 | 7.0 | 10.0 | 0.00 | 0.00 | 0.00 | 78 | 1016.5 |
| 20260510003503 | 53 | 352 | 7.0 | 9.0 | 0.00 | 0.00 | 0.00 | 77 | 1016.4 |
| 20260510003004 | 53 | 349 | 9.0 | 10.0 | 0.00 | 0.00 | 0.00 | 77 | 1016.5 |
| 20260510002503 | 53 | 350 | 8.0 | 10.0 | 0.00 | 0.00 | 0.00 | 76 | 1016.5 |
| 20260510002003 | 53 | 351 | 9.0 | 11.0 | 0.00 | 0.00 | 0.00 | 76 | 1016.6 |
| 20260510001503 | 53 | 353 | 8.0 | 10.0 | 0.00 | 0.00 | 0.00 | 75 | 1016.6 |
| 20260510001003 | 54 | 348 | 9.0 | 10.0 | 0.00 | 0.00 | 0.00 | 75 | 1016.7 |
| 20260510000503 | 54 | 350 | 9.0 | 11.0 | 0.00 | 0.00 | 0.00 | 74 | 1016.7 |
| 20260510000003 | 54 | 349 | 9.0 | 11.0 | 0.00 | 0.00 | 0.00 | 74 | 1016.7 |
| 20260509235503 | 54 | 348 | 9.0 | 10.0 | 0.00 | 0.00 | 0.00 | 73 | 1016.7 |
| 20260509235003 | 54 | 349 | 9.0 | 12.0 | 0.00 | 0.00 | 0.00 | 72 | 1016.8 |
| 20260509234503 | 54 | 351 | 7.0 | 10.0 | 0.00 | 0.00 | 0.00 | 72 | 1016.9 |
| 20260509234003 | 54 | 348 | 8.0 | 9.0 | 0.00 | 0.00 | 0.00 | 72 | 1017.0 |
| 20260509233503 | 54 | 346 | 8.0 | 10.0 | 0.00 | 0.00 | 0.00 | 72 | 1016.9 |
| 20260509233003 | 54 | 348 | 8.0 | 10.0 | 0.00 | 0.00 | 0.00 | 72 | 1016.9 |
| 20260509232503 | 54 | 349 | 8.0 | 9.0 | 0.00 | 0.00 | 0.00 | 71 | 1016.8 |
| 20260509232003 | 54 | 349 | 8.0 | 10.0 | 0.00 | 0.00 | 0.00 | 71 | 1016.9 |
| 20260509231503 | 54 | 349 | 8.0 | 10.0 | 0.00 | 0.00 | 0.00 | 70 | 1016.9 |
| 20260509231003 | 54 | 351 | 8.0 | 10.0 | 0.00 | 0.00 | 0.00 | 70 | 1016.9 |
| 20260509230503 | 54 | 353 | 8.0 | 9.0 | 0.00 | 0.00 | 0.00 | 69 | 1016.9 |
| 20260509230003 | 54 | 350 | 9.0 | 9.0 | 0.00 | 0.00 | 0.00 | 69 | 1016.9 |
| 20260509225503 | 55 | 350 | 9.0 | 10.0 | 0.00 | 0.00 | 0.00 | 69 | 1016.9 |
| 20260509225003 | 55 | 349 | 9.0 | 10.0 | 0.00 | 0.00 | 0.00 | 69 | 1016.9 |
| 20260509224503 | 55 | 351 | 8.0 | 11.0 | 0.00 | 0.00 | 0.00 | 68 | 1016.9 |
| 20260509224003 | 55 | 349 | 9.0 | 12.0 | 0.00 | 0.00 | 0.00 | 68 | 1017.1 |
| 20260509223503 | 55 | 350 | 8.0 | 9.0 | 0.00 | 0.00 | 0.00 | 69 | 1017.0 |
| 20260509223003 | 55 | 349 | 8.0 | 9.0 | 0.00 | 0.00 | 0.00 | 69 | 1017.0 |
| 20260509222503 | 55 | 346 | 9.0 | 10.0 | 0.00 | 0.00 | 0.00 | 69 | 1017.0 |
| 20260509222003 | 55 | 347 | 9.0 | 11.0 | 0.00 | 0.00 | 0.00 | 69 | 1017.0 |
| 20260509221503 | 56 | 349 | 9.0 | 10.0 | 0.00 | 0.00 | 0.00 | 69 | 1017.0 |
| 20260509221003 | 56 | 351 | 9.0 | 11.0 | 0.00 | 0.00 | 0.00 | 69 | 1017.0 |
| 20260509220503 | 56 | 350 | 9.0 | 10.0 | 0.00 | 0.00 | 0.00 | 69 | 1017.0 |
| 20260509220004 | 56 | 348 | 8.0 | 10.0 | 0.00 | 0.00 | 0.00 | 69 | 1016.9 |
| 20260509215503 | 56 | 348 | 8.0 | 10.0 | 0.00 | 0.00 | 0.00 | 69 | 1016.9 |
| 20260509215003 | 56 | 350 | 8.0 | 9.0 | 0.00 | 0.00 | 0.00 | 69 | 1017.0 |
| 20260509214503 | 56 | 349 | 8.0 | 10.0 | 0.00 | 0.00 | 0.00 | 69 | 1017.0 |
| 20260509214003 | 56 | 355 | 7.0 | 9.0 | 0.00 | 0.00 | 0.00 | 69 | 1017.0 |
| 20260509213503 | 56 | 350 | 8.0 | 9.0 | 0.00 | 0.00 | 0.00 | 69 | 1016.9 |
| 20260509213003 | 56 | 351 | 8.0 | 12.0 | 0.00 | 0.00 | 0.00 | 69 | 1016.9 |
| 20260509212503 | 56 | 350 | 8.0 | 12.0 | 0.00 | 0.00 | 0.00 | 69 | 1016.9 |
| 20260509212003 | 56 | 350 | 8.0 | 10.0 | 0.00 | 0.00 | 0.00 | 69 | 1017.0 |
| 20260509211503 | 56 | 350 | 8.0 | 9.0 | 0.00 | 0.00 | 0.00 | 69 | 1017.0 |
| 20260509211003 | 56 | 349 | 8.0 | 11.0 | 0.00 | 0.00 | 0.00 | 68 | 1017.0 |
| 20260509210503 | 57 | 348 | 8.0 | 10.0 | 0.00 | 0.00 | 0.00 | 68 | 1016.9 |
| 20260509210003 | 57 | 348 | 9.0 | 11.0 | 0.00 | 0.00 | 0.00 | 68 | 1017.0 |
| 20260509205503 | 57 | 348 | 9.0 | 11.0 | 0.00 | 0.00 | 0.00 | 68 | 1016.9 |
| 20260509205003 | 57 | 349 | 9.0 | 11.0 | 0.00 | 0.00 | 0.00 | 68 | 1016.8 |
| 20260509204503 | 57 | 351 | 9.0 | 11.0 | 0.00 | 0.00 | 0.00 | 67 | 1016.8 |
| 20260509204003 | 58 | 350 | 9.0 | 11.0 | 0.00 | 0.00 | 0.00 | 67 | 1016.7 |
| 20260509203524 | 58 | 349 | 9.0 | 11.0 | 0.00 | 0.00 | 0.00 | 67 | 1016.8 |
| 20260509203024 | 58 | 351 | 9.0 | 10.0 | 0.00 | 0.00 | 0.00 | 67 | 1016.7 |
| 20260509202503 | 58 | 351 | 9.0 | 10.0 | 0.00 | 0.00 | 0.00 | 67 | 1016.8 |
| 20260509202003 | 58 | 349 | 9.0 | 11.0 | 0.00 | 0.00 | 0.00 | 67 | 1016.8 |
| 20260509201524 | 58 | 347 | 8.0 | 10.0 | 0.00 | 0.00 | 0.00 | 66 | 1016.8 |
| 20260509201024 | 59 | 346 | 10.0 | 11.0 | 0.00 | 0.00 | 0.00 | 66 | 1016.7 |
| 20260509200503 | 59 | 352 | 10.0 | 13.0 | 0.00 | 0.00 | 0.00 | 66 | 1016.6 |
| 20260509200003 | 59 | 352 | 10.0 | 13.0 | 0.00 | 0.00 | 0.00 | 66 | 1016.7 |
| 20260509195524 | 59 | 347 | 11.0 | 14.0 | 0.00 | 0.00 | 0.00 | 65 | 1016.7 |
| 20260509195024 | 59 | 349 | 11.0 | 13.0 | 0.00 | 0.00 | 0.00 | 65 | 1016.6 |
| 20260509194525 | 60 | 350 | 11.0 | 13.0 | 0.00 | 0.00 | 0.00 | 66 | 1016.4 |
| 20260509194003 | 60 | 354 | 9.0 | 12.0 | 0.00 | 0.00 | 0.00 | 66 | 1016.3 |
| 20260509193524 | 60 | 350 | 11.0 | 12.0 | 0.00 | 0.00 | 0.00 | 65 | 1016.3 |
| 20260509193024 | 60 | 350 | 11.0 | 14.0 | 0.00 | 0.00 | 0.00 | 65 | 1016.1 |
| 20260509192503 | 60 | 350 | 11.0 | 15.0 | 0.00 | 0.00 | 0.00 | 65 | 1016.2 |
| 20260509192003 | 61 | 350 | 11.0 | 14.0 | 0.00 | 0.00 | 0.00 | 65 | 1016.1 |
| 20260509191524 | 61 | 348 | 9.0 | 14.0 | 0.00 | 0.00 | 0.00 | 65 | 1016.1 |
| 20260509191024 | 61 | 351 | 9.0 | 9.0 | 0.00 | 0.00 | 0.00 | 65 | 1016.1 |
| 20260509190524 | 62 | 349 | 11.0 | 13.0 | 0.00 | 0.00 | 0.00 | 64 | 1016.1 |
| 20260509190003 | 62 | 350 | 12.0 | 13.0 | 0.00 | 0.00 | 0.00 | 63 | 1016.1 |
| 20260509185524 | 62 | 349 | 12.0 | 13.0 | 0.00 | 0.00 | 0.00 | 63 | 1016.1 |
| 20260509185003 | 63 | 349 | 12.0 | 16.0 | 0.00 | 0.00 | 0.00 | 63 | 1016.1 |
| 20260509184503 | 63 | 349 | 12.0 | 18.0 | 0.00 | 0.00 | 0.00 | 62 | 1016.1 |
| 20260509184003 | 63 | 351 | 12.0 | 19.0 | 0.00 | 0.00 | 0.00 | 61 | 1016.0 |
| 20260509183503 | 64 | 349 | 12.0 | 15.0 | 0.00 | 0.00 | 0.00 | 61 | 1016.0 |
| 20260509183024 | 64 | 351 | 9.0 | 11.0 | 0.00 | 0.00 | 0.00 | 61 | 1016.1 |
| 20260509182503 | 65 | 348 | 12.0 | 14.0 | 0.00 | 0.00 | 0.00 | 60 | 1016.1 |
| 20260509182003 | 65 | 350 | 13.0 | 16.0 | 0.00 | 0.00 | 0.00 | 59 | 1016.0 |
| 20260509181503 | 66 | 348 | 12.0 | 14.0 | 0.00 | 0.00 | 0.00 | 59 | 1016.0 |
| 20260509181003 | 66 | 345 | 14.0 | 14.0 | 0.00 | 0.00 | 0.00 | 58 | 1016.0 |
| 20260509180503 | 66 | 349 | 13.0 | 16.0 | 0.00 | 0.00 | 0.00 | 58 | 1015.8 |
| 20260509180003 | 67 | 347 | 12.0 | 18.0 | 0.00 | 0.00 | 0.00 | 58 | 1015.8 |
| 20260509175524 | 67 | 343 | 14.0 | 18.0 | 0.00 | 0.00 | 0.00 | 57 | 1016.0 |
| 20260509175003 | 67 | 346 | 15.0 | 15.0 | 0.00 | 0.00 | 0.00 | 57 | 1016.0 |
| 20260509174524 | 67 | 345 | 14.0 | 23.0 | 0.00 | 0.00 | 0.00 | 57 | 1016.0 |
| 20260509174003 | 68 | 348 | 14.0 | 18.0 | 0.00 | 0.00 | 0.00 | 57 | 1015.9 |
| 20260509173503 | 68 | 345 | 14.0 | 20.0 | 0.00 | 0.00 | 0.00 | 56 | 1015.9 |
| 20260509173003 | 68 | 349 | 14.0 | 18.0 | 0.00 | 0.00 | 0.00 | 55 | 1015.8 |
| 20260509172503 | 68 | 346 | 14.0 | 14.0 | 0.00 | 0.00 | 0.00 | 56 | 1015.8 |
| 20260509172003 | 69 | 348 | 14.0 | 16.0 | 0.00 | 0.00 | 0.00 | 55 | 1015.8 |
| 20260509171503 | 69 | 339 | 14.0 | 20.0 | 0.00 | 0.00 | 0.00 | 55 | 1015.7 |
| 20260509171003 | 70 | 341 | 12.0 | 18.0 | 0.00 | 0.00 | 0.00 | 54 | 1015.7 |
| 20260509170504 | 70 | 351 | 8.0 | 9.0 | 0.00 | 0.00 | 0.00 | 50 | 1015.6 |
| 20260509170003 | 70 | 346 | 8.0 | 11.0 | 0.00 | 0.00 | 0.00 | 48 | 1015.6 |
| 20260509165503 | 70 | 23 | 5.0 | 9.0 | 0.00 | 0.00 | 0.00 | 50 | 1015.5 |
| 20260509165024 | 70 | 16 | 5.0 | 6.0 | 0.00 | 0.00 | 0.00 | 48 | 1015.6 |
| 20260509164503 | 70 | 33 | 3.0 | 6.0 | 0.00 | 0.00 | 0.00 | 49 | 1015.5 |
| 20260509164003 | 70 | 15 | 4.0 | 5.0 | 0.00 | 0.00 | 0.00 | 49 | 1015.5 |
| 20260509163503 | 71 | 358 | 7.0 | 9.0 | 0.00 | 0.00 | 0.00 | 47 | 1015.6 |
| 20260509163003 | 72 | 16 | 6.0 | 8.0 | 0.00 | 0.00 | 0.00 | 47 | 1015.6 |
| 20260509162503 | 72 | 34 | 4.0 | 6.0 | 0.00 | 0.00 | 0.00 | 48 | 1015.6 |
| 20260509162003 | 72 | 17 | 6.0 | 7.0 | 0.00 | 0.00 | 0.00 | 47 | 1015.6 |
| 20260509161503 | 72 | 42 | 4.0 | 6.0 | 0.00 | 0.00 | 0.00 | 49 | 1015.7 |
| 20260509161024 | 72 | 30 | 5.0 | 10.0 | 0.00 | 0.00 | 0.00 | 49 | 1015.7 |
| 20260509160503 | 71 | 30 | 4.0 | 5.0 | 0.00 | 0.00 | 0.00 | 50 | 1015.7 |
| 20260509160003 | 71 | 350 | 7.0 | 9.0 | 0.00 | 0.00 | 0.00 | 48 | 1015.8 |
| 20260509155504 | 72 | 12 | 6.0 | 8.0 | 0.00 | 0.00 | 0.00 | 47 | 1015.9 |
| 20260509155003 | 72 | 356 | 6.0 | 10.0 | 0.00 | 0.00 | 0.00 | 49 | 1015.8 |
| 20260509154503 | 72 | 358 | 7.0 | 8.0 | 0.00 | 0.00 | 0.00 | 46 | 1015.9 |
| 20260509154024 | 72 | 9 | 6.0 | 10.0 | 0.00 | 0.00 | 0.00 | 48 | 1016.0 |
| 20260509153503 | 73 | 13 | 6.0 | 10.0 | 0.00 | 0.00 | 0.00 | 49 | 1016.0 |
| 20260509153024 | 73 | 41 | 2.0 | 11.0 | 0.00 | 0.00 | 0.00 | 51 | 1016.1 |
| 20260509152503 | 73 | 12 | 4.0 | 16.0 | 0.00 | 0.00 | 0.00 | 50 | 1016.0 |
| 20260509152003 | 72 | 48 | 3.0 | 6.0 | 0.00 | 0.00 | 0.00 | 48 | 1016.0 |
| 20260509151503 | 71 | 34 | 4.0 | 6.0 | 0.00 | 0.00 | 0.00 | 48 | 1015.9 |
| 20260509151003 | 71 | 30 | 4.0 | 9.0 | 0.00 | 0.00 | 0.00 | 49 | 1016.0 |
| 20260509150503 | 72 | 25 | 6.0 | 7.0 | 0.00 | 0.00 | 0.00 | 48 | 1016.0 |
| 20260509150003 | 72 | 13 | 7.0 | 8.0 | 0.00 | 0.00 | 0.00 | 48 | 1016.0 |
| 20260509145503 | 72 | 348 | 9.0 | 11.0 | 0.00 | 0.00 | 0.00 | 47 | 1015.9 |
| 20260509145003 | 73 | 5 | 8.0 | 12.0 | 0.00 | 0.00 | 0.00 | 48 | 1016.0 |
| 20260509144503 | 73 | 11 | 7.0 | 12.0 | 0.00 | 0.00 | 0.00 | 48 | 1016.0 |
| 20260509144003 | 74 | 20 | 7.0 | 10.0 | 0.00 | 0.00 | 0.00 | 47 | 1016.0 |
| 20260509143503 | 74 | 65 | 2.0 | 8.0 | 0.00 | 0.00 | 0.00 | 48 | 1016.0 |
| 20260509143003 | 73 | 85 | 2.0 | 3.0 | 0.00 | 0.00 | 0.00 | 48 | 1016.1 |
| 20260509142503 | 73 | 49 | 2.0 | 5.0 | 0.00 | 0.00 | 0.00 | 50 | 1016.2 |
| 20260509142003 | 72 | 44 | 2.0 | 2.0 | 0.00 | 0.00 | 0.00 | 52 | 1016.2 |
| 20260509141503 | 72 | 28 | 5.0 | 8.0 | 0.00 | 0.00 | 0.00 | 47 | 1016.3 |
| 20260509141003 | 72 | 351 | 6.0 | 7.0 | 0.00 | 0.00 | 0.00 | 47 | 1016.3 |
| 20260509140503 | 72 | 8 | 6.0 | 6.0 | 0.00 | 0.00 | 0.00 | 46 | 1016.4 |
| 20260509140003 | 73 | 8 | 7.0 | 10.0 | 0.00 | 0.00 | 0.00 | 45 | 1016.4 |
| 20260509135503 | 74 | 25 | 4.0 | 7.0 | 0.00 | 0.00 | 0.00 | 45 | 1016.3 |
| 20260509135003 | 74 | 85 | 3.0 | 6.0 | 0.00 | 0.00 | 0.00 | 50 | 1016.3 |
| 20260509134503 | 74 | 49 | 3.0 | 4.0 | 0.00 | 0.00 | 0.00 | 50 | 1016.5 |
| 20260509134003 | 74 | 7 | 5.0 | 7.0 | 0.00 | 0.00 | 0.00 | 48 | 1016.5 |
| 20260509133503 | 74 | 45 | 3.0 | 8.0 | 0.00 | 0.00 | 0.00 | 50 | 1016.5 |
| 20260509133003 | 73 | 33 | 5.0 | 6.0 | 0.00 | 0.00 | 0.00 | 47 | 1016.6 |
| 20260509132503 | 73 | 38 | 5.0 | 11.0 | 0.00 | 0.00 | 0.00 | 49 | 1016.6 |
| 20260509132003 | 73 | 31 | 6.0 | 6.0 | 0.00 | 0.00 | 0.00 | 49 | 1016.6 |
| 20260509131503 | 73 | 38 | 5.0 | 7.0 | 0.00 | 0.00 | 0.00 | 51 | 1016.6 |
| 20260509131003 | 73 | 37 | 5.0 | 8.0 | 0.00 | 0.00 | 0.00 | 51 | 1016.7 |
| 20260509130503 | 72 | 17 | 3.0 | 9.0 | 0.00 | 0.00 | 0.00 | 52 | 1016.8 |
| 20260509130003 | 71 | 18 | 3.0 | 3.0 | 0.00 | 0.00 | 0.00 | 53 | 1016.8 |
| 20260509125503 | 71 | 19 | 7.0 | 9.0 | 0.00 | 0.00 | 0.00 | 52 | 1016.9 |
| 20260509125003 | 71 | 25 | 6.0 | 9.0 | 0.00 | 0.00 | 0.00 | 49 | 1016.8 |
| 20260509124503 | 71 | 2 | 6.0 | 6.0 | 0.00 | 0.00 | 0.00 | 51 | 1016.9 |
| 20260509124003 | 71 | 3 | 8.0 | 10.0 | 0.00 | 0.00 | 0.00 | 51 | 1017.1 |
| 20260509123503 | 71 | 7 | 7.0 | 11.0 | 0.00 | 0.00 | 0.00 | 51 | 1017.1 |
| 20260509123003 | 71 | 16 | 8.0 | 9.0 | 0.00 | 0.00 | 0.00 | 51 | 1017.1 |
| 20260509122503 | 72 | 7 | 6.0 | 9.0 | 0.00 | 0.00 | 0.00 | 52 | 1017.1 |
| 20260509122003 | 72 | 11 | 7.0 | 10.0 | 0.00 | 0.00 | 0.00 | 51 | 1017.3 |
| 20260509121503 | 72 | 356 | 4.0 | 10.0 | 0.00 | 0.00 | 0.00 | 52 | 1017.2 |
| 20260509121003 | 71 | 35 | 4.0 | 6.0 | 0.00 | 0.00 | 0.00 | 53 | 1017.3 |
| 20260509120503 | 71 | 27 | 7.0 | 10.0 | 0.00 | 0.00 | 0.00 | 53 | 1017.3 |
| 20260509120003 | 71 | 22 | 8.0 | 8.0 | 0.00 | 0.00 | 0.00 | 55 | 1017.4 |
| 20260509115503 | 71 | 11 | 7.0 | 12.0 | 0.00 | 0.00 | 0.00 | 54 | 1017.4 |
| 20260509115003 | 71 | 11 | 7.0 | 10.0 | 0.00 | 0.00 | 0.00 | 55 | 1017.5 |
| 20260509114503 | 71 | 14 | 6.0 | 11.0 | 0.00 | 0.00 | 0.00 | 52 | 1017.5 |
| 20260509114003 | 71 | 11 | 6.0 | 12.0 | 0.00 | 0.00 | 0.00 | 53 | 1017.6 |
| 20260509113503 | 71 | 44 | 4.0 | 7.0 | 0.00 | 0.00 | 0.00 | 58 | 1017.6 |
| 20260509113003 | 70 | 357 | 8.0 | 11.0 | 0.00 | 0.00 | 0.00 | 53 | 1017.7 |
| 20260509112503 | 70 | 10 | 7.0 | 12.0 | 0.00 | 0.00 | 0.00 | 53 | 1017.7 |
| 20260509112003 | 71 | 22 | 8.0 | 13.0 | 0.00 | 0.00 | 0.00 | 53 | 1017.7 |
| 20260509111503 | 70 | 20 | 6.0 | 13.0 | 0.00 | 0.00 | 0.00 | 56 | 1017.8 |
| 20260509111003 | 70 | 41 | 6.0 | 13.0 | 0.00 | 0.00 | 0.00 | 55 | 1017.9 |
| 20260509110503 | 70 | 33 | 6.0 | 9.0 | 0.00 | 0.00 | 0.00 | 56 | 1018.0 |
| 20260509110003 | 70 | 24 | 8.0 | 8.0 | 0.00 | 0.00 | 0.00 | 55 | 1017.9 |
| 20260509105503 | 70 | 9 | 7.0 | 10.0 | 0.00 | 0.00 | 0.00 | 56 | 1017.9 |
| 20260509105003 | 70 | 8 | 7.0 | 12.0 | 0.00 | 0.00 | 0.00 | 56 | 1018.0 |
| 20260509104503 | 70 | 24 | 7.0 | 9.0 | 0.00 | 0.00 | 0.00 | 54 | 1018.1 |
| 20260509104003 | 70 | 51 | 5.0 | 11.0 | 0.00 | 0.00 | 0.00 | 56 | 1018.1 |
| 20260509103503 | 70 | 45 | 5.0 | 8.0 | 0.00 | 0.00 | 0.00 | 53 | 1018.1 |
| 20260509103003 | 70 | 47 | 4.0 | 8.0 | 0.00 | 0.00 | 0.00 | 56 | 1018.1 |
| 20260509102503 | 70 | 53 | 4.0 | 6.0 | 0.00 | 0.00 | 0.00 | 57 | 1018.1 |
| 20260509102003 | 69 | 40 | 5.0 | 8.0 | 0.00 | 0.00 | 0.00 | 57 | 1018.1 |
| 20260509101503 | 69 | 29 | 6.0 | 7.0 | 0.00 | 0.00 | 0.00 | 58 | 1018.2 |
| 20260509101003 | 69 | 41 | 4.0 | 10.0 | 0.00 | 0.00 | 0.00 | 60 | 1018.3 |
| 20260509100503 | 68 | 39 | 5.0 | 7.0 | 0.00 | 0.00 | 0.00 | 58 | 1018.2 |
| 20260509100004 | 68 | 28 | 7.0 | 12.0 | 0.00 | 0.00 | 0.00 | 55 | 1018.2 |
| 20260509095503 | 68 | 22 | 8.0 | 12.0 | 0.00 | 0.00 | 0.00 | 56 | 1018.2 |
| 20260509095003 | 68 | 8 | 9.0 | 10.0 | 0.00 | 0.00 | 0.00 | 57 | 1018.2 |
| 20260509094503 | 68 | 13 | 7.0 | 12.0 | 0.00 | 0.00 | 0.00 | 57 | 1018.2 |
| 20260509094003 | 68 | 47 | 4.0 | 8.0 | 0.00 | 0.00 | 0.00 | 58 | 1018.2 |
| 20260509093503 | 68 | 29 | 5.0 | 8.0 | 0.00 | 0.00 | 0.00 | 59 | 1018.3 |
| 20260509093003 | 68 | 19 | 6.0 | 9.0 | 0.00 | 0.00 | 0.00 | 59 | 1018.4 |
| 20260509092503 | 67 | 15 | 7.0 | 10.0 | 0.00 | 0.00 | 0.00 | 59 | 1018.4 |
| 20260509092003 | 67 | 16 | 7.0 | 10.0 | 0.00 | 0.00 | 0.00 | 58 | 1018.4 |
| 20260509091503 | 67 | 12 | 7.0 | 9.0 | 0.00 | 0.00 | 0.00 | 59 | 1018.4 |
| 20260509091003 | 67 | 16 | 7.0 | 10.0 | 0.00 | 0.00 | 0.00 | 60 | 1018.4 |
| 20260509090503 | 67 | 45 | 3.0 | 6.0 | 0.00 | 0.00 | 0.00 | 62 | 1018.4 |
| 20260509090003 | 67 | 45 | 4.0 | 6.0 | 0.00 | 0.00 | 0.00 | 62 | 1018.4 |
| 20260509085503 | 67 | 26 | 5.0 | 5.0 | 0.00 | 0.00 | 0.00 | 61 | 1018.4 |
| 20260509085024 | 67 | 21 | 5.0 | 6.0 | 0.00 | 0.00 | 0.00 | 62 | 1018.3 |
| 20260509084503 | 66 | 26 | 4.0 | 8.0 | 0.00 | 0.00 | 0.00 | 63 | 1018.4 |
| 20260509084003 | 66 | 36 | 4.0 | 5.0 | 0.00 | 0.00 | 0.00 | 63 | 1018.4 |
| 20260509083503 | 66 | 40 | 3.0 | 5.0 | 0.00 | 0.00 | 0.00 | 64 | 1018.5 |
| 20260509083003 | 65 | 36 | 4.0 | 7.0 | 0.00 | 0.00 | 0.00 | 63 | 1018.5 |
| 20260509082524 | 65 | 44 | 3.0 | 7.0 | 0.00 | 0.00 | 0.00 | 66 | 1018.4 |
| 20260509082003 | 65 | 28 | 3.0 | 4.0 | 0.00 | 0.00 | 0.00 | 65 | 1018.4 |
| 20260509081524 | 64 | 40 | 2.0 | 5.0 | 0.00 | 0.00 | 0.00 | 66 | 1018.4 |
| 20260509081003 | 64 | 39 | 3.0 | 5.0 | 0.00 | 0.00 | 0.00 | 66 | 1018.5 |
| 20260509080503 | 63 | 35 | 4.0 | 7.0 | 0.00 | 0.00 | 0.00 | 67 | 1018.6 |
| 20260509080005 | 63 | 40 | 3.0 | 5.0 | 0.00 | 0.00 | 0.00 | 68 | 1018.6 |
| 20260509075503 | 62 | 69 | 2.0 | 4.0 | 0.00 | 0.00 | 0.00 | 72 | 1018.6 |
| 20260509075024 | 62 | 49 | 2.0 | 2.0 | 0.00 | 0.00 | 0.00 | 71 | 1018.6 |
| 20260509074503 | 61 | 33 | 4.0 | 5.0 | 0.00 | 0.00 | 0.00 | 70 | 1018.7 |
| 20260509074003 | 61 | 31 | 4.0 | 8.0 | 0.00 | 0.00 | 0.00 | 71 | 1018.7 |
| 20260509073503 | 60 | 47 | 3.0 | 5.0 | 0.00 | 0.00 | 0.00 | 72 | 1018.7 |
| 20260509073003 | 60 | 41 | 4.0 | 5.0 | 0.00 | 0.00 | 0.00 | 72 | 1018.7 |
| 20260509072503 | 59 | 60 | 3.0 | 5.0 | 0.00 | 0.00 | 0.00 | 73 | 1018.8 |
| 20260509072003 | 59 | 39 | 5.0 | 6.0 | 0.00 | 0.00 | 0.00 | 72 | 1018.8 |
| 20260509071524 | 59 | 30 | 5.0 | 7.0 | 0.00 | 0.00 | 0.00 | 73 | 1018.8 |
| 20260509071024 | 58 | 27 | 5.0 | 8.0 | 0.00 | 0.00 | 0.00 | 73 | 1018.8 |
| 20260509070524 | 58 | 31 | 4.0 | 6.0 | 0.00 | 0.00 | 0.00 | 75 | 1018.7 |
| 20260509070024 | 57 | 29 | 5.0 | 8.0 | 0.00 | 0.00 | 0.00 | 74 | 1018.7 |
| 20260509065524 | 57 | 30 | 5.0 | 6.0 | 0.00 | 0.00 | 0.00 | 75 | 1018.7 |
| 20260509065004 | 57 | 21 | 6.0 | 9.0 | 0.00 | 0.00 | 0.00 | 75 | 1018.7 |
| 20260509064503 | 56 | 20 | 6.0 | 8.0 | 0.00 | 0.00 | 0.00 | 76 | 1018.7 |
| 20260509064003 | 56 | 26 | 6.0 | 8.0 | 0.00 | 0.00 | 0.00 | 77 | 1018.7 |
| 20260509063503 | 56 | 19 | 6.0 | 8.0 | 0.00 | 0.00 | 0.00 | 77 | 1018.7 |
| 20260509063003 | 55 | 16 | 5.0 | 6.0 | 0.00 | 0.00 | 0.00 | 79 | 1018.7 |
| 20260509062503 | 55 | 17 | 5.0 | 6.0 | 0.00 | 0.00 | 0.00 | 79 | 1018.7 |
| 20260509062003 | 54 | 12 | 5.0 | 6.0 | 0.00 | 0.00 | 0.00 | 81 | 1018.7 |
| 20260509061504 | 54 | 11 | 4.0 | 7.0 | 0.00 | 0.00 | 0.00 | 81 | 1018.6 |
| 20260509061003 | 53 | 20 | 4.0 | 5.0 | 0.00 | 0.00 | 0.00 | 82 | 1018.6 |
| 20260509060503 | 53 | 22 | 4.0 | 6.0 | 0.00 | 0.00 | 0.00 | 82 | 1018.6 |
| 20260509060004 | 52 | 27 | 4.0 | 6.0 | 0.00 | 0.00 | 0.00 | 84 | 1018.5 |
| 20260509055503 | 52 | 9 | 4.0 | 6.0 | 0.00 | 0.00 | 0.00 | 85 | 1018.6 |
| 20260509055024 | 52 | 2 | 4.0 | 6.0 | 0.00 | 0.00 | 0.00 | 86 | 1018.6 |
| 20260509054503 | 51 | 358 | 4.0 | 6.0 | 0.00 | 0.00 | 0.00 | 86 | 1018.6 |
| 20260509054003 | 50 | 355 | 4.0 | 5.0 | 0.00 | 0.00 | 0.00 | 86 | 1018.5 |